| time (UTC) | temp F | wind direction | speed MPH | gust MPH | rain 1hr in | rain 24hr in | rain mn in | humidity % | barometer mb |
| 20260504232519 | 73 | 177 | 6.0 | 11.0 | 0.00 | 0.00 | 0.00 | 53 | 1006.1 |
| 20260504232018 | 73 | 144 | 4.0 | 9.0 | 0.00 | 0.00 | 0.00 | 53 | 1006.1 |
| 20260504231535 | 73 | 175 | 4.0 | 9.0 | 0.00 | 0.00 | 0.00 | 53 | 1006.1 |
| 20260504231038 | 73 | 178 | 4.0 | 9.0 | 0.00 | 0.00 | 0.00 | 52 | 1006.1 |
| 20260504230521 | 73 | 153 | 4.0 | 8.0 | 0.00 | 0.00 | 0.00 | 52 | 1006.3 |
| 20260504230034 | 73 | 198 | 3.0 | 10.0 | 0.00 | 0.00 | 0.00 | 52 | 1006.2 |
| 20260504225520 | 73 | 184 | 4.0 | 10.0 | 0.00 | 0.00 | 0.00 | 52 | 1006.4 |
| 20260504225019 | 73 | 191 | 4.0 | 13.0 | 0.00 | 0.00 | 0.00 | 52 | 1006.4 |
| 20260504224550 | 73 | 196 | 5.0 | 13.0 | 0.00 | 0.00 | 0.00 | 51 | 1006.6 |
| 20260504224019 | 73 | 161 | 5.0 | 11.0 | 0.00 | 0.00 | 0.00 | 51 | 1006.6 |
| 20260504223519 | 73 | 229 | 5.0 | 11.0 | 0.00 | 0.00 | 0.00 | 50 | 1006.8 |
| 20260504223036 | 74 | 236 | 3.0 | 10.0 | 0.00 | 0.00 | 0.00 | 51 | 1006.8 |
| 20260504222519 | 74 | 191 | 4.0 | 12.0 | 0.00 | 0.00 | 0.00 | 52 | 1006.7 |
| 20260504222018 | 73 | 236 | 5.0 | 12.0 | 0.00 | 0.00 | 0.00 | 52 | 1006.7 |
| 20260504221534 | 73 | 219 | 4.0 | 12.0 | 0.00 | 0.00 | 0.00 | 52 | 1006.7 |
| 20260504221020 | 72 | 221 | 4.0 | 12.0 | 0.00 | 0.00 | 0.00 | 53 | 1006.7 |
| 20260504220518 | 72 | 169 | 4.0 | 11.0 | 0.00 | 0.00 | 0.00 | 53 | 1006.8 |
| 20260504220035 | 72 | 205 | 4.0 | 11.0 | 0.00 | 0.00 | 0.00 | 53 | 1006.7 |
| 20260504215522 | 72 | 175 | 5.0 | 11.0 | 0.00 | 0.00 | 0.00 | 53 | 1006.7 |
| 20260504215017 | 72 | 210 | 5.0 | 11.0 | 0.00 | 0.00 | 0.00 | 53 | 1006.8 |
| 20260504214543 | 72 | 216 | 5.0 | 16.0 | 0.00 | 0.00 | 0.00 | 52 | 1007.1 |
| 20260504214019 | 72 | 221 | 4.0 | 16.0 | 0.00 | 0.00 | 0.00 | 53 | 1007.2 |
| 20260504213519 | 73 | 236 | 8.0 | 16.0 | 0.00 | 0.00 | 0.00 | 51 | 1007.3 |
| 20260504213036 | 73 | 205 | 6.0 | 17.0 | 0.00 | 0.00 | 0.00 | 52 | 1007.2 |
| 20260504212519 | 73 | 178 | 7.0 | 17.0 | 0.00 | 0.00 | 0.00 | 52 | 1007.3 |
| 20260504212019 | 73 | 226 | 6.0 | 17.0 | 0.00 | 0.00 | 0.00 | 53 | 1007.3 |
| 20260504211537 | 72 | 213 | 5.0 | 17.0 | 0.00 | 0.00 | 0.00 | 54 | 1007.3 |
| 20260504211018 | 72 | 196 | 9.0 | 20.0 | 0.00 | 0.00 | 0.00 | 53 | 1007.5 |
| 20260504210522 | 72 | 219 | 8.0 | 20.0 | 0.00 | 0.00 | 0.00 | 53 | 1007.5 |
| 20260504210052 | 71 | 153 | 8.0 | 17.0 | 0.00 | 0.00 | 0.00 | 56 | 1007.6 |
| 20260504205519 | 71 | 250 | 3.0 | 17.0 | 0.00 | 0.00 | 0.00 | 58 | 1007.7 |
| 20260504205022 | 71 | 221 | 7.0 | 16.0 | 0.00 | 0.00 | 0.00 | 57 | 1007.6 |
| 20260504204531 | 70 | 209 | 3.0 | 12.0 | 0.00 | 0.00 | 0.00 | 58 | 1007.8 |
| 20260504204018 | 70 | 195 | 5.0 | 12.0 | 0.00 | 0.00 | 0.00 | 57 | 1007.9 |
| 20260504203518 | 70 | 232 | 3.0 | 13.0 | 0.00 | 0.00 | 0.00 | 59 | 1008.1 |
| 20260504203043 | 70 | 244 | 4.0 | 13.0 | 0.00 | 0.00 | 0.00 | 60 | 1008.2 |
| 20260504202519 | 69 | 273 | 2.0 | 13.0 | 0.00 | 0.00 | 0.00 | 62 | 1008.3 |
| 20260504202018 | 69 | 171 | 4.0 | 10.0 | 0.00 | 0.00 | 0.00 | 65 | 1008.2 |
| 20260504201539 | 68 | 269 | 3.0 | 12.0 | 0.00 | 0.00 | 0.00 | 67 | 1008.3 |
| 20260504201016 | 67 | 210 | 5.0 | 12.0 | 0.00 | 0.00 | 0.00 | 67 | 1008.3 |
| 20260504200519 | 67 | 243 | 5.0 | 9.0 | 0.00 | 0.00 | 0.00 | 69 | 1008.2 |
| 20260504200049 | 66 | 182 | 4.0 | 9.0 | 0.00 | 0.00 | 0.00 | 70 | 1008.2 |
| 20260504195520 | 65 | 171 | 3.0 | 11.0 | 0.00 | 0.00 | 0.00 | 71 | 1008.3 |
| 20260504195021 | 65 | 239 | 4.0 | 11.0 | 0.00 | 0.00 | 0.00 | 70 | 1008.2 |
| 20260504194536 | 65 | 182 | 4.0 | 11.0 | 0.00 | 0.00 | 0.00 | 71 | 1008.4 |
| 20260504194022 | 65 | 203 | 4.0 | 8.0 | 0.00 | 0.00 | 0.00 | 71 | 1008.6 |
| 20260504193524 | 65 | 205 | 3.0 | 10.0 | 0.00 | 0.00 | 0.00 | 70 | 1008.5 |
| 20260504193043 | 65 | 93 | 2.0 | 10.0 | 0.00 | 0.00 | 0.00 | 70 | 1008.4 |
| 20260504192521 | 65 | 225 | 2.0 | 10.0 | 0.00 | 0.00 | 0.00 | 69 | 1009.0 |
| 20260504192019 | 66 | 236 | 5.0 | 10.0 | 0.00 | 0.00 | 0.00 | 69 | 1009.0 |
| 20260504191539 | 66 | 183 | 3.0 | 16.0 | 0.00 | 0.00 | 0.00 | 68 | 1008.8 |
| 20260504191023 | 66 | 160 | 3.0 | 16.0 | 0.00 | 0.00 | 0.00 | 65 | 1008.8 |
| 20260504190522 | 67 | 169 | 8.0 | 18.0 | 0.00 | 0.00 | 0.00 | 62 | 1009.6 |
| 20260504190040 | 67 | 200 | 8.0 | 18.0 | 0.00 | 0.00 | 0.00 | 60 | 1009.9 |
| 20260504185518 | 68 | 250 | 6.0 | 14.0 | 0.00 | 0.00 | 0.00 | 60 | 1009.6 |
| 20260504185022 | 68 | 232 | 6.0 | 13.0 | 0.00 | 0.00 | 0.00 | 59 | 1009.4 |
| 20260504184539 | 69 | 196 | 7.0 | 14.0 | 0.00 | 0.00 | 0.00 | 59 | 1009.6 |
| 20260504184022 | 69 | 226 | 6.0 | 16.0 | 0.00 | 0.00 | 0.00 | 59 | 1009.2 |
| 20260504183522 | 69 | 244 | 7.0 | 21.0 | 0.00 | 0.00 | 0.00 | 59 | 1009.3 |
| 20260504183037 | 70 | 250 | 8.0 | 21.0 | 0.00 | 0.00 | 0.00 | 57 | 1009.1 |
| 20260504182521 | 70 | 178 | 7.0 | 21.0 | 0.00 | 0.00 | 0.00 | 55 | 1008.7 |
| 20260504182021 | 70 | 255 | 7.0 | 28.0 | 0.00 | 0.00 | 0.00 | 56 | 1008.6 |
| 20260504181540 | 71 | 198 | 12.0 | 28.0 | 0.00 | 0.00 | 0.00 | 56 | 1008.6 |
| 20260504181024 | 71 | 169 | 7.0 | 17.0 | 0.00 | 0.00 | 0.00 | 58 | 1008.6 |
| 20260504180518 | 70 | 234 | 8.0 | 13.0 | 0.00 | 0.00 | 0.00 | 59 | 1008.3 |
| 20260504180039 | 70 | 120 | 6.0 | 21.0 | 0.00 | 0.00 | 0.00 | 59 | 1008.3 |
| 20260504175519 | 70 | 257 | 9.0 | 21.0 | 0.00 | 0.00 | 0.00 | 57 | 1008.2 |
| 20260504175019 | 70 | 239 | 6.0 | 18.0 | 0.00 | 0.00 | 0.00 | 59 | 1008.1 |
| 20260504174536 | 69 | 187 | 10.0 | 23.0 | 0.00 | 0.00 | 0.00 | 59 | 1008.2 |
| 20260504174021 | 69 | 187 | 8.0 | 23.0 | 0.00 | 0.00 | 0.00 | 60 | 1008.3 |
| 20260504173522 | 69 | 187 | 8.0 | 16.0 | 0.00 | 0.00 | 0.00 | 60 | 1008.4 |
| 20260504173035 | 68 | 175 | 6.0 | 18.0 | 0.00 | 0.00 | 0.00 | 59 | 1008.3 |
| 20260504172523 | 68 | 148 | 9.0 | 18.0 | 0.00 | 0.00 | 0.00 | 58 | 1008.5 |
| 20260504172022 | 68 | 190 | 6.0 | 17.0 | 0.00 | 0.00 | 0.00 | 59 | 1008.5 |
| 20260504171535 | 68 | 177 | 7.0 | 14.0 | 0.00 | 0.00 | 0.00 | 62 | 1008.6 |
| 20260504171022 | 67 | 193 | 7.0 | 14.0 | 0.00 | 0.00 | 0.00 | 63 | 1008.6 |
| 20260504170522 | 66 | 213 | 6.0 | 13.0 | 0.00 | 0.00 | 0.00 | 64 | 1008.7 |
| 20260504151021 | 64 | 153 | 5.0 | 12.0 | 0.00 | 0.00 | 0.00 | 64 | 1009.4 |
| 20260504150519 | 63 | 165 | 4.0 | 15.0 | 0.00 | 0.00 | 0.00 | 63 | 1009.3 |
| 20260504141022 | 60 | 210 | 9.0 | 17.0 | 0.00 | 0.00 | 0.00 | 65 | 1009.6 |
| 20260504140521 | 60 | 207 | 9.0 | 17.0 | 0.00 | 0.00 | 0.00 | 65 | 1009.7 |
| 20260504130520 | 55 | 198 | 6.0 | 14.0 | 0.00 | 0.00 | 0.00 | 73 | 1009.9 |
| 20260504110519 | 49 | 175 | 3.0 | 9.0 | 0.00 | 0.00 | 0.00 | 72 | 1009.8 |
| 20260504100525 | 49 | 191 | 4.0 | 10.0 | 0.00 | 0.00 | 0.00 | 71 | 1010.2 |
| 20260504081539 | 49 | 188 | 3.0 | 7.0 | 0.00 | 0.00 | 0.00 | 70 | 1011.0 |
| 20260504081021 | 49 | 205 | 3.0 | 8.0 | 0.00 | 0.00 | 0.00 | 70 | 1011.0 |
| 20260504080522 | 49 | 178 | 3.0 | 8.0 | 0.00 | 0.00 | 0.00 | 70 | 1011.0 |
| 20260504050518 | 52 | 187 | 5.0 | 12.0 | 0.00 | 0.00 | 0.00 | 62 | 1012.5 |
| 20260504045519 | 52 | 160 | 5.0 | 15.0 | 0.00 | 0.00 | 0.00 | 61 | 1012.4 |
| 20260504045025 | 52 | 171 | 5.0 | 13.0 | 0.00 | 0.00 | 0.00 | 61 | 1012.6 |
| 20260504044537 | 52 | 182 | 6.0 | 13.0 | 0.00 | 0.00 | 0.00 | 60 | 1012.5 |
| 20260504044021 | 52 | 195 | 5.0 | 12.0 | 0.00 | 0.00 | 0.00 | 60 | 1012.5 |
| 20260504043519 | 53 | 172 | 6.0 | 13.0 | 0.00 | 0.00 | 0.00 | 60 | 1012.6 |
| 20260504043046 | 53 | 178 | 5.0 | 13.0 | 0.00 | 0.00 | 0.00 | 59 | 1012.7 |
| 20260504042519 | 53 | 169 | 6.0 | 13.0 | 0.00 | 0.00 | 0.00 | 59 | 1012.7 |
| 20260504042019 | 53 | 177 | 5.0 | 13.0 | 0.00 | 0.00 | 0.00 | 59 | 1012.7 |
| 20260504041536 | 53 | 182 | 6.0 | 13.0 | 0.00 | 0.00 | 0.00 | 59 | 1012.7 |
| 20260504041018 | 53 | 195 | 4.0 | 12.0 | 0.00 | 0.00 | 0.00 | 58 | 1012.8 |
| 20260504040518 | 53 | 208 | 5.0 | 14.0 | 0.00 | 0.00 | 0.00 | 58 | 1012.9 |
| 20260504040039 | 54 | 178 | 6.0 | 14.0 | 0.00 | 0.00 | 0.00 | 58 | 1013.0 |
| 20260504035518 | 54 | 175 | 6.0 | 14.0 | 0.00 | 0.00 | 0.00 | 58 | 1013.0 |
| 20260504035019 | 54 | 178 | 6.0 | 14.0 | 0.00 | 0.00 | 0.00 | 57 | 1013.0 |
| 20260504034545 | 54 | 157 | 6.0 | 12.0 | 0.00 | 0.00 | 0.00 | 57 | 1013.0 |
| 20260504034022 | 54 | 171 | 5.0 | 12.0 | 0.00 | 0.00 | 0.00 | 57 | 1013.1 |
| 20260504033519 | 54 | 147 | 5.0 | 12.0 | 0.00 | 0.00 | 0.00 | 56 | 1013.1 |
| 20260504033036 | 54 | 203 | 6.0 | 11.0 | 0.00 | 0.00 | 0.00 | 56 | 1013.2 |
| 20260504032519 | 55 | 195 | 5.0 | 12.0 | 0.00 | 0.00 | 0.00 | 56 | 1013.1 |
| 20260504032019 | 55 | 175 | 5.0 | 12.0 | 0.00 | 0.00 | 0.00 | 55 | 1013.1 |
| 20260504031537 | 54 | 198 | 4.0 | 11.0 | 0.00 | 0.00 | 0.00 | 55 | 1013.2 |
| 20260504031018 | 54 | 162 | 4.0 | 10.0 | 0.00 | 0.00 | 0.00 | 55 | 1013.2 |
| 20260504030518 | 54 | 153 | 3.0 | 9.0 | 0.00 | 0.00 | 0.00 | 55 | 1013.3 |
| 20260504030046 | 54 | 184 | 3.0 | 7.0 | 0.00 | 0.00 | 0.00 | 55 | 1013.3 |
| 20260504025518 | 54 | 192 | 3.0 | 8.0 | 0.00 | 0.00 | 0.00 | 55 | 1013.4 |
| 20260504025021 | 54 | 217 | 4.0 | 8.0 | 0.00 | 0.00 | 0.00 | 55 | 1013.5 |
| 20260504024536 | 54 | 131 | 3.0 | 8.0 | 0.00 | 0.00 | 0.00 | 54 | 1013.4 |
| 20260504024019 | 54 | 0 | 2.0 | 7.0 | 0.00 | 0.00 | 0.00 | 54 | 1013.6 |
| 20260504023519 | 54 | 171 | 2.0 | 6.0 | 0.00 | 0.00 | 0.00 | 54 | 1013.6 |
| 20260504023038 | 54 | 193 | 3.0 | 7.0 | 0.00 | 0.00 | 0.00 | 54 | 1013.6 |
| 20260504022519 | 54 | 190 | 2.0 | 7.0 | 0.00 | 0.00 | 0.00 | 54 | 1013.6 |
| 20260504022018 | 54 | 178 | 3.0 | 7.0 | 0.00 | 0.00 | 0.00 | 55 | 1013.6 |
| 20260504021544 | 54 | 212 | 3.0 | 7.0 | 0.00 | 0.00 | 0.00 | 55 | 1013.6 |
| 20260504021018 | 54 | 218 | 2.0 | 6.0 | 0.00 | 0.00 | 0.00 | 55 | 1013.7 |
| 20260504020519 | 54 | 153 | 2.0 | 6.0 | 0.00 | 0.00 | 0.00 | 55 | 1013.7 |
| 20260504020038 | 54 | 218 | 2.0 | 4.0 | 0.00 | 0.00 | 0.00 | 55 | 1013.6 |
| 20260504015519 | 54 | 178 | 1.0 | 4.0 | 0.00 | 0.00 | 0.00 | 55 | 1013.6 |
| 20260504015020 | 54 | 171 | 1.0 | 5.0 | 0.00 | 0.00 | 0.00 | 55 | 1013.5 |
| 20260504014536 | 54 | 153 | 2.0 | 5.0 | 0.00 | 0.00 | 0.00 | 56 | 1013.4 |
| 20260504014018 | 55 | 160 | 2.0 | 5.0 | 0.00 | 0.00 | 0.00 | 56 | 1013.3 |
| 20260504013518 | 55 | 178 | 1.0 | 5.0 | 0.00 | 0.00 | 0.00 | 56 | 1013.3 |
| 20260504013037 | 55 | 111 | 2.0 | 6.0 | 0.00 | 0.00 | 0.00 | 56 | 1013.3 |
| 20260504012518 | 55 | 157 | 1.0 | 6.0 | 0.00 | 0.00 | 0.00 | 57 | 1013.3 |
| 20260504012019 | 55 | 146 | 2.0 | 5.0 | 0.00 | 0.00 | 0.00 | 57 | 1013.3 |
| 20260504011536 | 55 | 126 | 2.0 | 5.0 | 0.00 | 0.00 | 0.00 | 57 | 1013.3 |
| 20260504011021 | 56 | 169 | 1.0 | 5.0 | 0.00 | 0.00 | 0.00 | 55 | 1013.3 |
| 20260504010517 | 56 | 141 | 2.0 | 5.0 | 0.00 | 0.00 | 0.00 | 54 | 1013.3 |
| 20260504010036 | 56 | 153 | 2.0 | 5.0 | 0.00 | 0.00 | 0.00 | 53 | 1013.3 |
| 20260504005519 | 56 | 205 | 1.0 | 5.0 | 0.00 | 0.00 | 0.00 | 51 | 1013.4 |
| 20260504005019 | 56 | 178 | 2.0 | 5.0 | 0.00 | 0.00 | 0.00 | 51 | 1013.3 |
| 20260504004543 | 56 | 160 | 1.0 | 5.0 | 0.00 | 0.00 | 0.00 | 51 | 1013.3 |
| 20260504004024 | 57 | 184 | 2.0 | 5.0 | 0.00 | 0.00 | 0.00 | 51 | 1013.2 |
| 20260504003518 | 57 | 171 | 1.0 | 7.0 | 0.00 | 0.00 | 0.00 | 50 | 1013.1 |
| 20260504003036 | 57 | 221 | 3.0 | 7.0 | 0.00 | 0.00 | 0.00 | 48 | 1013.1 |
| 20260504002518 | 57 | 215 | 1.0 | 5.0 | 0.00 | 0.00 | 0.00 | 47 | 1013.3 |
| 20260504002018 | 57 | 193 | 1.0 | 5.0 | 0.00 | 0.00 | 0.00 | 46 | 1013.3 |
| 20260504001539 | 57 | 150 | 1.0 | 7.0 | 0.00 | 0.00 | 0.00 | 46 | 1013.2 |
| 20260504001018 | 57 | 171 | 1.0 | 7.0 | 0.00 | 0.00 | 0.00 | 46 | 1013.1 |
| 20260504000519 | 58 | 164 | 2.0 | 7.0 | 0.00 | 0.00 | 0.00 | 45 | 1013.2 |
| 20260504000039 | 58 | 142 | 1.0 | 7.0 | 0.00 | 0.00 | 0.00 | 45 | 1013.1 |
| 20260503235519 | 58 | 207 | 1.0 | 8.0 | 0.00 | 0.00 | 0.00 | 45 | 1012.9 |
| 20260503235019 | 58 | 217 | 3.0 | 9.0 | 0.00 | 0.00 | 0.00 | 44 | 1012.9 |
| 20260503234539 | 58 | 175 | 3.0 | 9.0 | 0.00 | 0.00 | 0.00 | 44 | 1012.9 |
| 20260503234019 | 58 | 127 | 4.0 | 11.0 | 0.00 | 0.00 | 0.00 | 43 | 1012.9 |
| 20260503233519 | 58 | 205 | 5.0 | 12.0 | 0.00 | 0.00 | 0.00 | 43 | 1012.9 |
| 20260503233036 | 58 | 212 | 5.0 | 12.0 | 0.00 | 0.00 | 0.00 | 43 | 1013.1 |